[[{"header":{"parameterUnit":"m.s-1","parameterCategory":1,"la1":30.2991,"la2":30.254,"lo1":-89.0895,"lo2":-89.0444,"dy":0.0017,"dx":0.0017,"nx":28,"ny":28,"refTime":"2023-08-16T09:00:00:Z","depth":0,"parameterNumber":2,"parameterNumberName":"U-component_of_WINDS"},"data":[0,0,0,0,0,0,0,0,0,0,0,0,0,0,0,0,0,0,0,0,0,0,0,0,0,0,0,0,0,0,0,0,0,0,0,0,0,0,0,0,0,0,0,0,0,0,0,0,0,0,0,0,0,0,0,0,0,0,-0.7283,-0.7283,0,-0.728,-0.728,-0.728,-0.7265,-0.7265,-0.7265,-0.7264,-0.7261,-0.7261,-0.7262,0,0,0,0,0,0,0,0,0,0,0,0,0,-0.7275,-0.7276,-0.7283,-0.7283,-0.7283,-0.728,-0.728,-0.728,-0.7265,-0.7265,-0.7265,-0.7264,-0.7261,-0.7261,-0.7262,0,0,0,0,0,0,0,0,0,0,0,0,0,-0.7276,-0.7276,-0.7283,-0.7275,-0.7275,-0.728,-0.728,-0.728,-0.7265,-0.7265,-0.7264,-0.7264,-0.7261,-0.7261,-0.7262,-0.7274,0,0,-0.7263,-0.7263,0,0,0,0,0,0,0,0,-0.7276,-0.7277,-0.7277,-0.7276,-0.7275,-0.7273,-0.7276,-0.7278,-0.7266,-0.7269,-0.7264,-0.7264,-0.7265,-0.7265,-0.7266,-0.7274,-0.7274,-0.7263,-0.7263,-0.7263,-0.7263,0,0,0,0,0,0,0,-0.7276,-0.7277,-0.7282,-0.7277,-0.7276,-0.7272,-0.7271,-0.7276,-0.727,-0.7269,-0.7268,-0.7267,-0.7265,-0.7266,-0.7266,-0.7274,-0.7263,-0.7263,-0.7263,-0.7263,-0.7291,-0.7292,0,0,0,0,0,0,-0.7277,-0.7277,-0.7282,-0.7282,-0.7274,-0.7272,-0.7272,-0.7274,-0.727,-0.7269,-0.7268,-0.7267,-0.7265,-0.7265,-0.7265,-0.7279,-0.7263,-0.7263,-0.7264,-0.7291,-0.7291,-0.7292,0,0,0,0,0,0,-0.7277,-0.7278,-0.7282,-0.7279,-0.7279,-0.7273,-0.7275,-0.7274,-0.7275,-0.7269,-0.7268,-0.727,-0.7265,-0.7265,-0.7272,-0.7279,-0.7264,-0.7264,-0.729,-0.7291,-0.7292,-0.7307,0,0,0,0,0,0,-0.7277,-0.7278,-0.7283,-0.7279,-0.7279,-0.7289,-0.7276,-0.7274,-0.7275,-0.7274,-0.7271,-0.727,-0.7264,-0.7271,-0.7272,-0.7279,-0.7264,-0.729,-0.7291,-0.7292,-0.7306,-0.7308,-0.731,0,0,0,0,0,-0.7277,-0.7287,-0.7283,-0.7284,-0.7285,-0.7289,-0.7289,-0.7283,-0.7276,-0.7281,-0.7277,-0.727,-0.7278,-0.7272,-0.7273,-0.728,-0.7289,-0.729,-0.7291,-0.7305,-0.7308,-0.731,0,0,0,0,0,0,-0.7292,-0.7287,-0.7282,-0.7292,-0.7291,-0.7287,-0.7292,-0.7286,-0.7287,-0.7286,-0.7278,-0.7277,-0.7285,-0.7284,-0.7277,-0.7292,-0.7282,-0.7284,-0.7292,-0.7295,-0.7297,-0.7297,-0.7264,0,0,0,0,0,-0.7297,-0.73,-0.7295,-0.7305,-0.7304,-0.7299,-0.73,-0.7295,-0.7294,-0.7294,-0.7291,-0.729,-0.7292,-0.7294,-0.7295,-0.7306,-0.7304,-0.7311,-0.7313,-0.7315,-0.7316,-0.732,-0.7323,-0.7296,-0.7296,-0.7296,0,0,-0.7306,-0.7303,-0.7306,-0.7308,-0.7306,-0.731,-0.7298,-0.7303,-0.7305,-0.7294,-0.73,-0.7298,-0.7297,-0.7305,-0.7309,-0.7304,-0.7323,-0.7317,-0.7318,-0.7318,-0.7322,-0.7324,-0.7327,-0.7297,-0.7297,-0.7296,0,0,-0.7324,-0.7323,-0.733,-0.7329,-0.7328,-0.7324,-0.7325,-0.7322,-0.732,-0.7326,-0.7317,-0.732,-0.7325,-0.7324,-0.7324,-0.7342,-0.7334,-0.7343,-0.7354,-0.7358,-0.736,-0.7362,-0.7367,-0.7369,-0.7344,-0.7344,-0.7344,0,-0.7336,-0.7341,-0.7335,-0.7339,-0.734,-0.733,-0.7337,-0.7336,-0.7335,-0.7336,-0.733,-0.7335,-0.7333,-0.7341,-0.7345,-0.7346,-0.7347,-0.7342,-0.736,-0.7362,-0.7364,-0.7368,-0.7371,-0.7345,-0.7345,-0.7344,-0.7344,0,-0.7355,-0.7359,-0.7364,-0.7363,-0.7365,-0.737,-0.7364,-0.7367,-0.7362,-0.7358,-0.7364,-0.7362,-0.7362,-0.7364,-0.736,-0.7371,-0.7368,-0.7362,-0.7352,-0.7367,-0.7371,-0.7373,-0.7346,-0.7346,-0.7345,-0.7345,0,0,-0.7382,-0.7377,-0.7379,-0.7378,-0.7376,-0.7379,-0.7384,-0.7385,-0.7386,-0.7386,-0.7389,-0.7393,-0.7387,-0.7387,-0.7383,-0.7387,-0.74,-0.738,-0.738,-0.7382,-0.7411,-0.7414,-0.7417,-0.7395,-0.7396,-0.7396,-0.741,0,-0.7398,-0.7407,-0.7401,-0.741,-0.7413,-0.7404,-0.7408,-0.7407,-0.7404,-0.7406,-0.7403,-0.7405,-0.7398,-0.7397,-0.7401,-0.7397,-0.7405,-0.7396,-0.7398,-0.7398,-0.7397,-0.7419,-0.7423,-0.7437,-0.7412,-0.7413,-0.7413,0,-0.7419,-0.7419,-0.7428,-0.7425,-0.7426,-0.743,-0.7429,-0.7432,-0.743,-0.7427,-0.7428,-0.7422,-0.7426,-0.7417,-0.7423,-0.7417,-0.7418,-0.7416,-0.7416,-0.7415,-0.7405,-0.7418,-0.7441,-0.7443,-0.7416,-0.7415,-0.7415,0,-0.7436,-0.7439,-0.7445,-0.7444,-0.7441,-0.7443,-0.7442,-0.744,-0.744,-0.744,-0.7441,-0.7441,-0.7441,-0.7442,-0.7436,-0.7431,-0.7442,-0.7433,-0.7439,-0.7439,-0.7441,-0.7441,-0.7464,-0.7444,-0.7444,-0.7443,-0.7443,0,-0.7454,-0.746,-0.7452,-0.7456,-0.7462,-0.7455,-0.7461,-0.7459,-0.7457,-0.7459,-0.7452,-0.7455,-0.7447,-0.7449,-0.7445,-0.7449,-0.745,-0.7447,-0.7446,-0.7447,-0.7447,-0.7447,-0.7445,-0.7444,-0.7444,-0.7444,-0.7444,0,-0.7474,-0.7469,-0.7474,-0.747,-0.747,-0.7474,-0.747,-0.7473,-0.747,-0.7473,-0.7473,-0.7468,-0.7469,-0.7464,-0.7465,-0.7462,-0.7468,-0.7466,-0.7469,-0.7468,-0.7474,-0.7473,-0.7496,-0.7498,-0.7477,-0.7478,-0.7478,0,-0.7485,-0.7489,-0.7486,-0.7487,-0.7486,-0.7488,-0.7488,-0.7482,-0.7483,-0.7481,-0.7484,-0.7485,-0.7485,-0.7488,-0.7484,-0.7484,-0.7481,-0.7489,-0.7481,-0.7482,-0.748,-0.7479,-0.7479,-0.7491,-0.7491,-0.7491,-0.7491,0,-0.7505,-0.7503,-0.7504,-0.7504,-0.7505,-0.7504,-0.7504,-0.7505,-0.7498,-0.75,-0.7501,-0.7501,-0.7502,-0.7503,-0.7502,-0.75,-0.7494,-0.7494,-0.7495,-0.7496,-0.7497,-0.7495,-0.7472,-0.7493,-0.7493,-0.7493,-0.7493,-0.7493,-0.752,-0.7523,-0.7521,-0.7522,-0.7521,-0.752,-0.7523,-0.7519,-0.752,-0.752,-0.7517,-0.7519,-0.7517,-0.7515,-0.7514,-0.7515,-0.7512,-0.7514,-0.7514,-0.7514,-0.7515,-0.7498,-0.7516,-0.7515,-0.7515,-0.7515,-0.7515,0,-0.7539,-0.7537,-0.7538,-0.7537,-0.7538,-0.7533,-0.7532,-0.7533,-0.7535,-0.7533,-0.7534,-0.7535,-0.7536,-0.7532,-0.7532,-0.7534,-0.7531,-0.7534,-0.7533,-0.7532,-0.7519,-0.7517,-0.7536,-0.7536,-0.7536,-0.7536,-0.7536,-0.7536,-0.7549,-0.7553,-0.755,-0.7554,-0.7552,-0.7553,-0.7553,-0.7552,-0.7551,-0.7553,-0.7553,-0.7551,-0.7548,-0.7548,-0.7548,-0.7547,-0.7547,-0.7551,-0.7549,-0.7536,-0.7534,-0.7532,-0.753,-0.7551,-0.7551,-0.7562,-0.7562,-0.7562]},{"header":{"parameterUnit":"m.s-1","parameterCategory":1,"la1":30.2991,"la2":30.254,"lo1":-89.0895,"lo2":-89.0444,"dy":0.0017,"dx":0.0017,"nx":28,"ny":28,"refTime":"2023-08-16T09:00:00:Z","depth":0,"parameterNumber":3,"parameterNumberName":"V-component_of_WINDS"},"data":[0,0,0,0,0,0,0,0,0,0,0,0,0,0,0,0,0,0,0,0,0,0,0,0,0,0,0,0,0,0,0,0,0,0,0,0,0,0,0,0,0,0,0,0,0,0,0,0,0,0,0,0,0,0,0,0,0,0,0.3392,0.3391,0,0.3291,0.329,0.3289,0.3254,0.3254,0.3255,0.3255,0.3149,0.3146,0.3143,0,0,0,0,0,0,0,0,0,0,0,0,0,0.3554,0.3551,0.3392,0.3391,0.339,0.3291,0.329,0.3288,0.3254,0.3254,0.3255,0.3255,0.315,0.3146,0.3143,0,0,0,0,0,0,0,0,0,0,0,0,0,0.3471,0.355,0.3393,0.3361,0.3357,0.3292,0.329,0.3288,0.3254,0.3254,0.3255,0.3256,0.3152,0.3147,0.3142,0.31,0,0,0.3127,0.3125,0,0,0,0,0,0,0,0,0.3476,0.3465,0.3367,0.3363,0.3358,0.3286,0.3308,0.3225,0.3254,0.3293,0.3255,0.3256,0.3194,0.3186,0.3165,0.3095,0.3091,0.3127,0.3124,0.3122,0.3121,0,0,0,0,0,0,0,0.3482,0.347,0.3352,0.3365,0.336,0.3351,0.334,0.3292,0.3241,0.329,0.3287,0.3275,0.3192,0.317,0.3163,0.3089,0.3127,0.3123,0.312,0.3118,0.298,0.2979,0,0,0,0,0,0,0.3493,0.3475,0.3355,0.3349,0.342,0.3348,0.3335,0.3308,0.3242,0.3232,0.3275,0.3274,0.3178,0.3168,0.3159,0.3106,0.3122,0.3118,0.3115,0.2981,0.298,0.2979,0,0,0,0,0,0,0.3497,0.3483,0.3359,0.3411,0.3395,0.3344,0.3314,0.3306,0.3284,0.3231,0.3221,0.3262,0.3178,0.3166,0.3115,0.3101,0.3115,0.3111,0.2982,0.2981,0.298,0.2999,0,0,0,0,0,0,0.3502,0.3484,0.3468,0.3411,0.3392,0.3318,0.3314,0.3304,0.3276,0.3274,0.3216,0.3207,0.3178,0.3123,0.3111,0.3095,0.3107,0.2983,0.2981,0.298,0.2999,0.2999,0.2998,0,0,0,0,0,0.3507,0.3477,0.3468,0.3453,0.3371,0.3318,0.3307,0.3274,0.3276,0.3259,0.3224,0.3209,0.3105,0.3118,0.3104,0.3087,0.2984,0.2982,0.298,0.3,0.2999,0.2998,0,0,0,0,0,0,0.3533,0.3469,0.3458,0.3408,0.3369,0.3312,0.329,0.3274,0.3233,0.3232,0.3193,0.318,0.3133,0.3105,0.312,0.3043,0.3043,0.3039,0.3063,0.3062,0.3061,0.3069,0.3103,0,0,0,0,0,0.3533,0.3496,0.3441,0.3403,0.3384,0.334,0.3316,0.3294,0.3251,0.3234,0.3196,0.3155,0.3113,0.3086,0.3044,0.2995,0.2982,0.2977,0.2976,0.2976,0.2972,0.2945,0.2942,0.2973,0.2973,0.2973,0,0,0.3532,0.3493,0.3471,0.3407,0.3374,0.3336,0.3326,0.3286,0.3257,0.3228,0.3178,0.3149,0.31,0.3051,0.3027,0.3026,0.2961,0.2974,0.2974,0.297,0.2943,0.294,0.2937,0.2972,0.2972,0.2973,0,0,0.3511,0.3478,0.3442,0.341,0.336,0.3331,0.3323,0.3269,0.3248,0.3199,0.3176,0.3141,0.3069,0.3036,0.3009,0.2977,0.2961,0.2964,0.2961,0.2934,0.2932,0.2929,0.2918,0.2914,0.2961,0.2961,0.2961,0,0.3516,0.3458,0.3426,0.3387,0.3359,0.3332,0.3296,0.3265,0.3204,0.3186,0.3186,0.3096,0.3061,0.3004,0.2996,0.2975,0.2964,0.297,0.2935,0.2932,0.2929,0.2918,0.2914,0.2962,0.2962,0.2961,0.2961,0,0.3467,0.3427,0.3404,0.3348,0.3318,0.328,0.3241,0.3215,0.3196,0.3167,0.3117,0.3075,0.3024,0.3009,0.299,0.2949,0.295,0.2943,0.2942,0.2928,0.2916,0.2912,0.2963,0.2962,0.2962,0.2962,0,0,0.3458,0.3385,0.3377,0.3351,0.3295,0.3263,0.3225,0.3177,0.3155,0.3114,0.308,0.3021,0.3015,0.2985,0.2962,0.2939,0.2916,0.2934,0.2932,0.2932,0.2869,0.2874,0.287,0.2906,0.2905,0.2904,0.2873,0,0.343,0.3361,0.3331,0.3275,0.3238,0.3212,0.3179,0.3141,0.3113,0.3077,0.3046,0.3005,0.3,0.2982,0.2958,0.2924,0.2903,0.2926,0.2874,0.2872,0.2887,0.2864,0.2869,0.2842,0.2868,0.2867,0.2867,0,0.3388,0.3348,0.3289,0.3238,0.3222,0.3192,0.3146,0.3112,0.3068,0.305,0.3017,0.2995,0.2954,0.2957,0.2899,0.2915,0.2892,0.2873,0.2871,0.2864,0.2869,0.2857,0.2832,0.2828,0.2859,0.286,0.2861,0,0.3388,0.3319,0.3275,0.3254,0.3194,0.3173,0.3147,0.3104,0.3077,0.3037,0.3019,0.2974,0.2949,0.2914,0.2881,0.2886,0.2826,0.2826,0.2809,0.281,0.2797,0.2799,0.2769,0.2783,0.2783,0.2783,0.2783,0,0.3359,0.3324,0.3275,0.3247,0.3207,0.3173,0.3134,0.3106,0.3068,0.3035,0.301,0.2979,0.2937,0.2901,0.2874,0.283,0.2819,0.2803,0.2796,0.2805,0.2807,0.2789,0.279,0.2782,0.2782,0.2783,0.2783,0,0.3352,0.3317,0.3268,0.3215,0.3201,0.3174,0.3129,0.3101,0.3073,0.3031,0.302,0.2975,0.2931,0.2895,0.2837,0.2819,0.2774,0.2766,0.2789,0.2785,0.2771,0.2773,0.2728,0.272,0.274,0.274,0.274,0,0.3336,0.3308,0.3253,0.323,0.3204,0.3166,0.3139,0.3105,0.3077,0.3026,0.3005,0.296,0.2921,0.2853,0.2815,0.277,0.2761,0.2749,0.2754,0.2764,0.2761,0.2763,0.276,0.2748,0.2748,0.2748,0.2748,0,0.3311,0.3296,0.3258,0.3215,0.3183,0.3147,0.311,0.3092,0.3051,0.3021,0.2977,0.2948,0.2889,0.2844,0.2796,0.2769,0.2751,0.2747,0.2741,0.2749,0.2764,0.2756,0.2788,0.2748,0.2748,0.2748,0.2748,0.2748,0.3299,0.3274,0.3231,0.319,0.3159,0.3126,0.3098,0.3067,0.3029,0.298,0.2961,0.2916,0.2873,0.2807,0.2779,0.2743,0.2741,0.2732,0.2729,0.2728,0.2729,0.277,0.2734,0.2734,0.2734,0.2734,0.2734,0,0.3273,0.3245,0.3208,0.3158,0.3125,0.3113,0.3072,0.3046,0.3006,0.2969,0.2932,0.2881,0.2838,0.2797,0.2752,0.2731,0.2722,0.272,0.2721,0.2715,0.2734,0.2744,0.2728,0.2728,0.2728,0.2728,0.2728,0.2728,0.3256,0.3213,0.3192,0.3134,0.3105,0.3061,0.3039,0.3008,0.2978,0.2922,0.2887,0.2861,0.2822,0.2774,0.2733,0.2722,0.2707,0.2707,0.2694,0.2712,0.2714,0.2715,0.2724,0.2704,0.2704,0.2679,0.2678,0.2678]}]]